Regional Weather Roundup
Issued by NWS Charleston, SC

Home | Current Version | Previous Version | Text Only | Print | Product List | Glossary On
Versions: 1 2 3 4 5 6 7 8 9 10 11 12 13 14 15 16 17 18 19 20 21 22 23 24 25 26 27 28 29 30 31 32 33 34 35 36 37 38 39 40 41 42 43 44 45 46 47 48 49 50
000
ASUS42 KCHS 191725
RWRCHS

REGIONAL WEATHER ROUNDUP
NATIONAL WEATHER SERVICE CHARLESTON SC
100 PM EDT SAT APR 19 2014

NOTE: "FAIR" INDICATES FEW OR NO CLOUDS BELOW 12,000 FEET WITH NO
SIGNIFICANT WEATHER AND/OR OBSTRUCTIONS TO VISIBILITY.

NOT ALL STATIONS ARE QUALITY CONTROLLED BY THE NATIONAL
WEATHER SERVICE. USE DATA WITH CAUTION...ESPECIALLY
DEWPOINT OBSERVATIONS.

SCZ027-030-031-034>040-042>050-191800-
...SOUTH CAROLINA...

CITY           SKY/WX    TMP DP  RH WIND       PRES   REMARKS
N CHARLESTON   CLOUDY    63  58  83 NE10      29.97F
WATERFRONT PRK   N/A     61 N/A N/A N14         N/A
FORT JOHNSON     N/A     61  61 100 N8        30.01F
MOUNT PLEASANT CLOUDY   N/A N/A N/A N7        29.97S HAZE
JOHNS ISLAND   CLOUDY    63  63 100 N9        29.96F
PINOPOLIS        N/A     57  55  94 NE14      29.93S
MONCKS CORNER  CLOUDY    59  59 100 N8        29.99F FOG
SUMMERVILLE    NOT AVBL
BEAUFORT MCAS  CLOUDY    62  59  90 E12       29.96F
BEAUFORT ARPT  CLOUDY    61  61 100 N10       29.96S FOG
HILTON HEAD IS CLOUDY    63  61  94 N14       29.97
GEORGETOWN     NOT AVBL
WALTERBORO     CLOUDY    57 N/A N/A N7        29.99F
ORANGEBURG     CLOUDY    57  52  83 NE18G24   30.02F
BARNWELL       CLOUDY    57  54  88 NE18      30.02F
AIKEN          CLOUDY    55  55 100 NE15G21   30.07F
MANNING        CLOUDY    55 N/A N/A N10       30.02F
KINGSTREE      NOT AVBL
COLUMBIA       CLOUDY    58  54  86 NE15G22   30.06S FOG
SUMTER         LGT RAIN  55  54  94 NE17G26   30.03F
FLORENCE       CLOUDY    55  51  86 NE18G26   30.05F
MYRTLE BEACH   CLOUDY    57  55  94 N16       30.00S
N MYRTLE BEACH CLOUDY    58  54  86 NE18      29.99F

$$

GAZ063-065-086>088-099>101-113>116-118-119-134-136>141-150-191800-
...GEORGIA...

CITY           SKY/WX    TMP DP  RH WIND       PRES   REMARKS
SAVANNAH ARPT  CLOUDY    61  57  87 NE12      29.95F
HUNTER AAF     CLOUDY    62  60  94 NE6       29.93F
FORT STEWART   CLOUDY    60  60 100 N10       29.94F
STATESBORO     NOT AVBL
SYLVANIA       CLOUDY    60  56  87 NE14G20   29.99F
CLAXTON        CLOUDY    59  59 100 NE7       29.97S
THOMSON        CLOUDY    55  55 100 NE14G20   30.09F
AUGUSTA-BUSH   LGT RAIN  58  53  84 NE10G20   30.03F
AUGUSTA-DANIEL LGT RAIN  57  54  89 NE15G23   30.04F
SWAINSBORO     DRIZZLE   55  55 100 NE10G16   30.01S
VIDALIA        CLOUDY    59  55  88 N13       29.98S
ALMA           CLOUDY    58  54  86 NE8       29.95R
WAYCROSS       NOT AVBL
JESUP          RAIN      59  59 100 NE7       29.94F
BRUNSWICK      CLOUDY    63  63 100 NE9       29.92F
SAINT SIMONS   LGT RAIN  63  62  97 NE13      29.91F FOG

$$

SCZ027-028-034-036>038-045-046-048>050-GAZ119-141-191800-
...LAKE AND SUPPLEMENTAL COASTAL OBSERVATIONS...

STATION/POSITION TIME  TEMP    WIND        PRES    WAVE   SWELL
                       AIR SEA DIR/SP/G            HT/PER HT/PER/DIR
                 (UTC) (F)     (DEG/KT/KT) (MB)    (FT/S) (FT/S/D)
UPR LAKE MARION  NOT AVBL
WINYAH BAY       1600   61      40/ 12     1015.0S
LAKE MURRAY      1600   54      20/  4/ 10 1017.9S
ACE BASIN NERRS  1600   60      20/  4     1015.0S
FORT PULASKI     1700   61 59   30/ 10/ 13 1014.2F
SAPELO ISLAND    1600   62      30/ 11     1014.0R

$$

ANZ835-935-AMZ111-154-330-350-352-354-374-450-454-472-191800-
...C-MAN AND BUOY OBSERVATIONS...

STATION/POSITION TIME  TEMP    WIND        PRES    WAVE   SWELL
                       AIR SEA DIR/SP/G            HT/PER HT/PER/DIR
                 (UTC) (F)     (DEG/KT/KT) (MB)    (FT/S) (FT/S/D)
FOLLY BEACH CMAN 1700   62      30/ 12/ 13 1014.8F
BUOY 41004       NOT AVBL
BUOY 41008       1700   63 65   40/ 16/ 17 1012.7F   5/ 7   3/110/ 7
5E ST. MARYS GA  1700      65                N/A     4/10   2/ 90/11
FRYING PAN BUOY  1700   65 68   50/ 21/ 25 1013.4F   7/ 7   3/ 90/10
BUOY 41025       NOT AVBL
CAPE LOOKOUT NC  1700   59      30/ 30/ 38 1016.7F
BUOY 41002       NOT AVBL
BUOY 41010       1700   75 76  200/ 10/ 12 1013.9F   7/ 7   7/170/ 7
BUOY 41012       NOT AVBL
ST AUGUSTINE FL  1700   69      30/  4/  6 1012.8F
CAPERS NEARSHORE NOT AVBL
FRIPP NEARSHORE  1600   61      40/ 14/ 17   N/A


$$


USA.gov is the U.S. government's official web portal to all federal, state and local government web resources and services.